Location: Iwkowa
(49.8210°N, 20.5761°E)
Time: 00:42:19
(UTC+01:00)

ISS - Pass Details

Date: 26 January 2019
Orbit: 403 x 411 km, 51.6° (Epoch: 20 February)

Event Time Altitude Azimuth Distance (km) Brightness Sun altitude
Rises 19:13:33 0° 261° (W) 2,336 1.2 -27.5°
Reaches altitude 10° 19:15:39 10° 264° (W) 1,477 0.0 -27.8°
Enters shadow 19:16:46 20° 267° (W) 1,029 -1.1 -28.0°
